Location: Unspecified
(40.9447°N, 78.9903°W)
Time: 13:05:09
(UTC-04:00)

Cosmos 1674 - Pass Details

Date: 27 July 2021
Orbit: 491 x 516 km, 82.5° (Epoch: 23 September)

Event Time Altitude Azimuth Distance (km) Brightness Sun altitude
Rises 04:07:15 0° 356° (N) 2,647 7.0 -18.8°
Reaches altitude 10° 04:09:26 10° 1° (N) 1,755 6.1 -18.5°
Maximum altitude 04:13:13 56° 80° (E) 621 3.3 -18.1°
Enters shadow 04:16:19 14° 157° (SSE) 1,475 4.8 -17.7°
